Content
SEND FEEDBACK

Australia Flag

LISMORE, NEW SOUTH WALES


Home > Oceania > Australia > New South Wales
Elevation: 11 meters     Latitude: 28 48S     Longitude: 153 15E

WEATHER
 
SELECT A DAY
Number of Records: 210,778;   Date Range: 10/20/03 - 3/22/16
 
SHARE

PRINT THIS DATA

[ ← Previous Day ]
WEATHER ALMANAC - 3 JANUARY, 2013
[ Next Day → ]
[ °F ]   °C
Weather ElementAverageHighLow
Temperature25 °C28 °C (10:00 am)23 °C (2:00 am)
Dewpoint17.7 °C20 °C (12:00 am)16 °C (9:00 am)
Humidity63.1 %83 % (2:30 am)43 % (3:00 pm)
Barometer1014.9 hPa1016.3 hPa (7:30 am)1013.2 hPa (1:00 am)
Wind Speed25.4 km/h35.2 km/h (1:00 pm)
Weather ElementAverage
Visibility10 km
Wind DirectionSSE (164.4 °)

Weather ElementTotal
Precipitation---
Cooling Degree Days7.2 (Base 18.3)
Growing Degree Days15.5 (Base 10)
Averaged from 55 records on 3 January, 2013
WEATHER CONDITIONS BREAKOUT
WIND DIRECTION BREAKOUT
WEATHER BY HOUR - 3 JANUARY, 2013
[ °F ]   °C
Local TimeTemperatureDewpointHumidityBarometerVisibilityWind DirectionWind SpeedGust SpeedPrecipitationEventsConditions
12:00 AM24 °C20 °C78 %1014.2 hPa10 kmSouth (180°)20.4 km/hMostly Cloudy
12:30 AM24 °C20 °C78 %1014.2 hPa10 kmSouth (190°)20.4 km/hScattered Clouds
1:00 AM24 °C20 °C78 %1013.2 hPa10 kmSouth (190°)22.2 km/hMostly Cloudy
1:30 AM24 °C20 °C78 %1013.2 hPa10 kmSouth (180°)20.4 km/hOvercast
2:00 AM23 °C19 °C78 %1013.2 hPa10 kmSouth (190°)18.5 km/hMostly Cloudy
2:30 AM23 °C20 °C83 %1013.2 hPa10 kmSouth (190°)16.7 km/hOvercast
3:00 AM23 °C19 °C78 %1013.2 hPa10 kmSouth (190°)18.5 km/hOvercast
3:00 AM23.3 °C19.4 °C71 %1013.9 hPaSouth (190°)18.5 km/hOvercast
3:30 AM23 °C19 °C78 %1013.2 hPa10 kmSouth (190°)20.4 km/hOvercast
4:00 AM23 °C19 °C78 %1014.2 hPa10 kmSouth (190°)20.4 km/hOvercast
4:30 AM23 °C19 °C78 %1014.2 hPa10 kmSouth (180°)18.5 km/hOvercast
5:00 AM23 °C18 °C73 %1014.2 hPa10 kmSouth (180°)20.4 km/hScattered Clouds
5:30 AM23 °C18 °C73 %1014.2 hPa10 kmSouth (180°)20.4 km/hMostly Cloudy
6:00 AM23 °C18 °C73 %1015.2 hPa10 kmSouth (190°)18.5 km/hScattered Clouds
6:00 AM23.3 °C17.8 °C63 %1015.2 hPaSouth (190°)18.5 km/h
6:30 AM23 °C18 °C73 %1015.2 hPa10 kmSouth (190°)20.4 km/hScattered Clouds
7:00 AM24 °C18 °C69 %1015.2 hPa10 kmSouth (190°)18.5 km/hMostly Cloudy
7:30 AM25 °C18 °C65 %1016.3 hPa10 kmSouth (170°)22.2 km/hMostly Cloudy
8:00 AM26 °C19 °C65 %1015.2 hPa10 kmSouth (190°)24.1 km/hOvercast
8:30 AM25 °C18 °C65 %1016.3 hPa10 kmSouth (170°)29.6 km/hMostly Cloudy
9:00 AM26 °C16 °C54 %1016.3 hPa10 kmSouth (170°)29.6 km/hScattered Clouds
9:00 AM25.6 °C16.1 °C46 %1015.9 hPaSouth (170°)29.6 km/h
9:30 AM27 °C17 °C54 %1015.2 hPa10 kmSSE (160°)33.3 km/hMostly Cloudy
10:00 AM28 °C18 °C54 %1015.2 hPa10 kmSSE (160°)27.8 km/hMostly Cloudy
10:30 AM27 °C17 °C54 %1015.2 hPa10 kmSouth (170°)27.8 km/hMostly Cloudy
11:00 AM28 °C18 °C54 %1015.2 hPa10 kmSouth (170°)25.9 km/hOvercast
11:30 AM28 °C18 °C54 %1015.2 hPa10 kmSSE (160°)33.3 km/hMostly Cloudy
12:00 PM28 °C18 °C54 %1015.2 hPa10 kmSSE (150°)33.3 km/hScattered Clouds
12:00 PM27.8 °C17.8 °C44 %1015.2 hPaSSE (150°)33.3 km/h
12:30 PM28 °C18 °C54 %1015.2 hPa10 kmSSE (150°)31.5 km/hMostly Cloudy
1:00 PM28 °C18 °C54 %1014.2 hPa10 kmSSE (150°)35.2 km/hScattered Clouds
1:30 PM28 °C17 °C51 %1014.2 hPa10 kmSSE (150°)29.6 km/h
2:00 PM28 °C17 °C51 %1014.2 hPa10 kmSE (140°)33.3 km/hScattered Clouds
2:30 PM28 °C17 °C51 %1014.2 hPa10 kmSE (140°)33.3 km/hScattered Clouds
3:00 PM27 °C17 °C54 %1014.2 hPa10 kmSSE (150°)35.2 km/hScattered Clouds
3:00 PM27.2 °C16.7 °C43 %1014.2 hPaSSE (150°)35.2 km/h
3:30 PM27 °C17 °C54 %1014.2 hPa10 kmSE (140°)33.3 km/hScattered Clouds
4:00 PM26 °C18 °C61 %1014.2 hPa10 kmSSE (150°)29.6 km/hScattered Clouds
4:30 PM25 °C18 °C65 %1014.2 hPa10 kmSSE (150°)29.6 km/hOvercast
5:00 PM25 °C17 °C61 %1014.2 hPa10 kmSSE (150°)31.5 km/hMostly Cloudy
5:30 PM25 °C17 °C61 %1014.2 hPa10 kmSSE (150°)33.3 km/hMostly Cloudy
6:00 PM24 °C17 °C65 %1015.2 hPa10 kmSSE (150°)29.6 km/hMostly Cloudy
6:00 PM24.4 °C16.7 °C53 %1015.2 hPaSSE (150°)29.6 km/h
6:30 PM24 °C17 °C65 %1015.2 hPa10 kmSSE (150°)25.9 km/h
7:00 PM24 °C16 °C61 %1015.2 hPa10 kmSSE (150°)24.1 km/hMostly Cloudy
7:30 PM24 °C16 °C61 %1015.2 hPa10 kmSE (140°)24.1 km/hMostly Cloudy
8:00 PM24 °C17 °C65 %1015.2 hPa10 kmSSE (150°)22.2 km/hMostly Cloudy
8:30 PM24 °C17 °C65 %1016.3 hPa10 kmSSE (150°)24.1 km/hOvercast
9:00 PM24 °C17 °C65 %1016.3 hPa10 kmSSE (150°)22.2 km/hOvercast
9:00 PM23.9 °C16.7 °C55 %1016.3 hPaSSE (150°)22.2 km/hOvercast
9:30 PM24 °C16 °C61 %1016.3 hPa10 kmSSE (150°)22.2 km/hOvercast
10:00 PM24 °C16 °C61 %1016.3 hPa10 kmSSE (150°)18.5 km/hOvercast
10:30 PM24 °C16 °C61 %1016.3 hPa10 kmSSE (150°)22.2 km/hOvercast
11:00 PM24 °C17 °C65 %1016.3 hPa10 kmSSE (150°)16.7 km/hOvercast
11:30 PM23 °C16 °C65 %1016.3 hPa10 kmSSE (160°)18.5 km/hOvercast
Hourly data recorded from YLIS, located 0 kilometers away from Lismore, New South Wales




STORIES FROM OUR PARTNERS